Location: Kuffner-Sternwarte
(48.2130°N, 16.2960°E)
Time: 22:36:48
(UTC+02:00)

COROT - Visible Passes

Search period start: 20 July 2018 00:00
Search period end: 30 July 2018 00:00
Orbit: 601 x 887 km, 90.0° (Epoch: 20 July)

Date Brightness Start Highest point End Pass type
(mag) Time Alt. Az. Time Alt. Az. Time Alt. Az.
21 Jul 9.4 04:12:18 10° E 04:14:41 13° ENE 04:17:02 10° NE visible
23 Jul 9.0 04:24:02 10° ESE 04:27:49 19° ENE 04:31:32 10° NNE visible
25 Jul 8.6 04:36:24 10° SE 04:41:02 26° ENE 04:45:31 10° NNE visible
26 Jul 9.2 03:56:01 10° E 03:58:29 13° ENE 04:00:54 10° NE visible
28 Jul 8.9 04:07:51 10° ESE 04:11:38 19° ENE 04:15:18 10° NNE visible
